Regional Weather Roundup
Issued by NWS

Home | Current Version | Previous Version | Graphics & Text | Print | Product List | Glossary On
Versions: 1 2 3 4 5 6 7 8 9 10 11 12 13 14 15 16 17 18 19 20 21 22 23 24 25 26 27 28
000
ASUS45 KBOI 270710
RWRID

IDAHO REGIONAL WEATHER ROUNDUP
NATIONAL WEATHER SERVICE BOISE ID
1200 AM MST MON FEB 27 2017

NOTE: "FAIR" INDICATES FEW OR NO CLOUDS BELOW 12000 FEET
WITH NO SIGNIFICANT WEATHER AND/OR OBSTRUCTIONS TO VISIBILITY

IDZ012-014-270800-
SOUTHWEST IDAHO


CITY           SKY/WX    TMP DP  RH WIND       PRES   REMARKS
BOISE          MOCLDY    31  23  72 SE14      29.65F WCI  21
CALDWELL       CLOUDY    31  26  82 SE12      29.66F WCI  22
MOUNTAIN HOME  CLEAR     27  27 100 E10       29.67F WCI  18
$$

IDZ016-017-270800-
SOUTHCENTRAL IDAHO


CITY           SKY/WX    TMP DP  RH WIND       PRES   REMARKS
BURLEY         LGT SNOW  29  23  78 S8        29.64F WCI  21
JEROME           N/A    N/A N/A N/A MISG      29.66F
TWIN FALLS     CLOUDY    27  23  85 S9        29.65S WCI  18
$$

IDZ019>023-270800-
SOUTHEAST IDAHO


CITY           SKY/WX    TMP DP  RH WIND       PRES   REMARKS
IDAHO FALLS    LGT SNOW  24  24 100 SW8       29.63F VSB 3/4 WCI  15
POCATELLO      LGT SNOW  27  25  92 SW9       29.66R FOG     WCI  18
REXBURG        LGT SNOW  24  21  88 S9        29.62F FOG     WCI  14
$$

IDZ006-010-011-018-031-032-270800-
CENTRAL IDAHO MOUNTAINS


CITY           SKY/WX    TMP DP  RH WIND       PRES   REMARKS
MCCALL         LGT SNOW  20  17  88 CALM      29.54F FOG
HAILEY         MOCLDY    18  14  86 N3        29.63S
STANLEY          N/A     13   8  81 CALM      29.55S
SALMON         CLOUDY    25  16  68 S5        29.60R WCI  19
CHALLIS        PTCLDY    17  10  74 N7        29.58S WCI   8
$$

IDZ002-004-006-007-026-270800-
NORTHERN IDAHO


CITY           SKY/WX    TMP DP  RH WIND       PRES   REMARKS
LEWISTON       FOG       32  30  92 CALM      29.68S VSB 1
LOWELL           N/A     33  31  92 CALM      29.70S
COEUR D`ALENE  FOG       23  21  92 CALM      29.64S VSB 1/2
MULLAN PASS    LGT SNOW  16  15  96 VRB5      29.46S VSB 3/4 WCI   9
$$




USA.gov is the U.S. government's official web portal to all federal, state and local government web resources and services.